Regional Weather Roundup
Issued by NWS

Home | Current Version | Previous Version | Text Only | Print | Product List | Glossary On
Versions: 1 2 3 4 5 6 7 8 9 10 11 12 13 14 15 16 17 18 19 20 21 22 23 24 25 26 27 28 29 30 31 32 33 34 35 36 37 38 39 40 41 42 43 44 45 46 47 48 49 50
000
ASUS43 KOAX 290802
RWRNE

WEATHER ROUNDUP FOR NEBRASKA
NATIONAL WEATHER SERVICE OMAHA NE
300 AM CDT THU JUN 29 2017

NOTES: SATELLITE DATA IS BEING USED TO AUGMENT CLOUD COVER ABOVE
       12000 FEET.
       "FAIR" INDICATES FEW OR NO CLOUDS BELOW 12,000 FEET WITH NO
       SIGNIFICANT WEATHER AND/OR OBSTRUCTIONS TO VISIBILITY.

  * THESE STATIONS DO NOT REPORT WEATHER SUCH AS RAIN...SNOW OR FOG.

NEZ001>004-019>022-054>056-290900-
NEBRASKA PANHANDLE

CITY           SKY/WX    TMP DP  RH WIND       PRES   REMARKS
SCOTTSBLUFF    PTCLDY    61  53  75 N7        29.81F
ALLIANCE       PTCLDY    60  51  72 SE6       29.80F
CHADRON        CLEAR     53  51  93 CALM      29.80F
KIMBALL        CLOUDY    56  53  90 S5        29.86F
SIDNEY         MOCLDY    59  52  77 SE8       29.84F
$$

NEZ057>060-069>072-079>082-290900-
SOUTHWEST NEBRASKA

CITY           SKY/WX    TMP DP  RH WIND       PRES   REMARKS
NORTH PLATTE   TSTM      71  55  56 NW22G31   29.86R
IMPERIAL       CLOUDY    67  51  56 NW16      29.85R THUNDER
LEXINGTON      CLOUDY    71  57  61 SE8       29.74R
MCCOOK         CLOUDY    75  52  44 S8        29.73F
OGALLALA       CLOUDY    64  56  76 NE8       29.85F
$$

NEZ005>010-023>029-035>040-094-290900-
NORTH CENTRAL NEBRASKA

CITY           SKY/WX    TMP DP  RH WIND       PRES   REMARKS
VALENTINE      PTCLDY    63  53  70 SE16      29.77F
AINSWORTH      PTCLDY    60  58  91 E6        29.81F
BROKEN BOW     MOCLDY    72  54  53 NW14      29.76R
O`NEILL        CLOUDY    66  58  74 NW24G35   29.80R
ORD            MOCLDY    68  55  63 NW8       29.72R
THEDFORD       TSTM      64  55  71 N8G16     29.87R
$$

NEZ041-046>049-061>064-073>077-083>087-290900-
SOUTH CENTRAL NEBRASKA

CITY           SKY/WX    TMP DP  RH WIND       PRES   REMARKS
GRAND ISLAND   CLOUDY    70  65  84 NW3       29.72F
AURORA         CLOUDY    69  65  86 SE6       29.71F
HASTINGS       CLOUDY    69  61  75 S9        29.76F
HEBRON         TSTM      67  63  88 SW17G35   29.83R
HOLDREGE       PTCLDY    68  59  73 SE5       29.77R
KEARNEY *      PTCLDY    70  61  73 S9        29.75F
YORK           CLOUDY    68  66  94 S6        29.73F THUNDER
$$

NEZ011>018-030>034-042>045-290900-
NORTHEAST NEBRASKA

CITY           SKY/WX    TMP DP  RH WIND       PRES   REMARKS
NORFOLK        MOCLDY    64  61  90 CALM      29.75R
ALBION         CLOUDY    73  60  63 NE6       29.73S
BLAIR          CLOUDY    68  65  88 W5        29.74R
FREMONT        MOCLDY    70  68  93 CALM      29.73F
TEKAMAH        CLEAR     66  62  87 CALM      29.72S
WAYNE          CLEAR     62  61  99 CALM      29.74S
$$

NEZ050>053-065>068-078-088>093-290900-
SOUTHEAST NEBRASKA

CITY           SKY/WX    TMP DP  RH WIND       PRES   REMARKS
LINCOLN        CLOUDY    70  67  90 NE3       29.74R
OMAHA EPPLEY   CLOUDY    71  65  81 CALM      29.72S
BEATRICE       CLOUDY    75  62  64 W10G28    29.74R THUNDER
FALLS CITY     LGT RAIN  76  69  79 E10       29.73R
NEBRASKA CITY  CLOUDY    74  73  96 S6        29.74R
PLATTSMOUTH    MOCLDY    71  66  86 SE3       29.72S
$$

NEZ044-045-051>053-067-290900-
OMAHA AREA

CITY           SKY/WX    TMP DP  RH WIND       PRES   REMARKS
OMAHA EPPLEY   CLOUDY    71  65  81 CALM      29.72S
BLAIR          CLOUDY    68  65  88 W5        29.74R
FREMONT        MOCLDY    70  68  93 CALM      29.73F
MILLARD        CLOUDY    71  68  89 W3        29.73R
OFFUTT AFB     PTCLDY    68  67  97 CALM      29.71S
PLATTSMOUTH    MOCLDY    71  66  86 SE3       29.72S
WAHOO          FAIR      70  65  82 N3        29.72F
$$




USA.gov is the U.S. government's official web portal to all federal, state and local government web resources and services.